Weather History for Gonzales, LA

Change the Weather History Date:

Sunday, April 7, 2013

  Actual Average (KBTR) Record (KBTR)
Temperature  
Mean Temperature 65 °F 66 °F  
Max Temperature 78 °F 78 °F 89 °F (1954)
Min Temperature 53 °F 55 °F 36 °F (1996)
Degree Days  
Heating Degree Days 0 3  
Month to date heating degree days 21  
Since 1 July heating degree days 1523  
Cooling Degree Days 0 4  
Month to date cooling degree days 22  
Year to date cooling degree days 111  
Growing Degree Days 15 (Base 50)    
Moisture  
Dew Point 57 °F    
Average Humidity 76    
Maximum Humidity 99    
Minimum Humidity 50    
Precipitation  
Precipitation 0.00 in 0.16 in 1.94 in (1919)
Month to date precipitation 1.08  
Year to date precipitation 16.25  
Snow  
Snow 0.00 in - - ()
Month to date snowfall  
Since 1 July snowfall  
Snow Depth -    
Sea Level Pressure  
Sea Level Pressure 30.03 in    
Wind  
Wind Speed 3 mph (SE)    
Max Wind Speed 13 mph    
Max Gust Speed 18 mph    
Visibility 9 miles    
Events      
T = Trace of Precipitation, MM = Missing Value Source: NWS Daily Summary

Daily Weather History Graph

Daily Weather History Graph

Search for Another Location

Airport:

Trip Planner

Search our weather history database for the weather conditions in past years. The results will help you decide how hot, cold, wet, or windy it might be!

Date:

Astronomy

Apr. 07, 2013 Rise Set
Actual Time 6:45 AM CDT 7:26 PM CDT
Civil Twilight 6:21 AM CDT 7:50 PM CDT
Nautical Twilight 5:52 AM CDT 8:19 PM CDT
Astronomical Twilight 5:23 AM CDT 8:48 PM CDT
Moon 4:52 AM CDT (4/7) 5:07 PM CDT (4/7)
Length of Visible Light 13h 29m
Length of Day
12h 40m
Waning Crescent, 8% of the Moon is Illuminated
Apr 7
Waning Crescent
Apr 10
New
Apr 18
First Quarter
Apr 25
Full
May 2
Last Quarter

Hourly Weather History & Observations

Time (CDT) Temp. Dew Point Humidity Pressure Visibility Wind Dir Wind Speed Gust Speed Precip Events Conditions
12:15 AM 60.1 °F 55.6 °F 85% 30.07 in 10.0 mi SE 3.5 mph - N/A   Mostly Cloudy
12:35 AM 59.9 °F 55.9 °F 87% 30.06 in 10.0 mi Calm Calm - N/A   Mostly Cloudy
12:55 AM 59.0 °F 55.9 °F 90% 30.05 in 10.0 mi Calm Calm - N/A   Scattered Clouds
1:15 AM 58.6 °F 56.3 °F 92% 30.05 in 10.0 mi Calm Calm - N/A   Clear
1:35 AM 56.3 °F 55.0 °F 96% 30.05 in 10.0 mi Calm Calm - N/A   Clear
1:55 AM 55.8 °F 55.0 °F 97% 30.04 in 10.0 mi Calm Calm - N/A   Clear
2:15 AM 54.1 °F 54.0 °F 99% 30.04 in 5.0 mi Calm Calm - N/A   Clear
2:35 AM 54.0 °F 53.8 °F 99% 30.04 in 1.8 mi Calm Calm - N/A   Mist
2:55 AM 53.1 °F 52.9 °F 99% 30.03 in 7.0 mi Calm Calm - N/A   Clear
3:15 AM 54.5 °F 54.0 °F 98% 30.03 in 7.0 mi Calm Calm - N/A   Clear
3:35 AM 53.6 °F 53.4 °F 99% 30.03 in 7.0 mi Calm Calm - N/A   Clear
3:55 AM 54.0 °F 53.8 °F 99% 30.03 in 1.8 mi Calm Calm - N/A   Mist
4:15 AM 53.1 °F 52.7 °F 99% 30.03 in 7.0 mi Calm Calm - N/A   Clear
4:35 AM 54.1 °F 54.0 °F 99% 30.03 in 4.0 mi Calm Calm - N/A   Clear
4:55 AM 53.8 °F 53.4 °F 99% 30.03 in 4.0 mi Calm Calm - N/A   Mostly Cloudy
5:15 AM 54.3 °F 53.8 °F 98% 30.03 in 7.0 mi Calm Calm - N/A   Mostly Cloudy
5:35 AM 54.9 °F 54.3 °F 98% 30.03 in 10.0 mi Calm Calm - N/A   Mostly Cloudy
5:55 AM 55.6 °F 54.5 °F 96% 30.03 in 7.0 mi Calm Calm - N/A   Mostly Cloudy
6:15 AM 55.4 °F 54.5 °F 97% 30.04 in 7.0 mi Calm Calm - N/A   Mostly Cloudy
6:35 AM 56.3 °F 55.6 °F 97% 30.04 in 7.0 mi Calm Calm - N/A   Mostly Cloudy
6:55 AM 55.8 °F 55.0 °F 97% 30.05 in 7.0 mi Calm Calm - N/A   Mostly Cloudy
7:15 AM 56.8 °F 56.3 °F 98% 30.06 in 5.0 mi Calm Calm - N/A   Overcast
7:35 AM 58.1 °F 57.2 °F 97% 30.07 in 7.0 mi Calm Calm - N/A   Overcast
7:55 AM 59.0 °F 57.2 °F 94% 30.07 in 7.0 mi Calm Calm - N/A   Mostly Cloudy
8:15 AM 60.6 °F 58.1 °F 91% 30.07 in 10.0 mi Calm Calm - N/A   Mostly Cloudy
8:35 AM 62.2 °F 58.8 °F 89% 30.07 in 10.0 mi East 3.5 mph - N/A   Scattered Clouds
8:55 AM 64.8 °F 59.2 °F 82% 30.07 in 10.0 mi East 4.6 mph - N/A   Clear
9:15 AM 66.9 °F 60.3 °F 79% 30.07 in 10.0 mi ESE 6.9 mph - N/A   Clear
9:35 AM 67.8 °F 59.5 °F 75% 30.07 in 10.0 mi SE 6.9 mph - N/A   Clear
9:55 AM 69.1 °F 59.7 °F 72% 30.08 in 10.0 mi ESE 9.2 mph 17.3 mph N/A   Scattered Clouds
10:15 AM 70.9 °F 60.3 °F 69% 30.08 in 10.0 mi ESE 10.4 mph - N/A   Mostly Cloudy
10:35 AM 70.5 °F 60.4 °F 70% 30.08 in 10.0 mi SSE 11.5 mph - N/A   Mostly Cloudy
10:55 AM 71.4 °F 59.9 °F 67% 30.08 in 10.0 mi SSE 9.2 mph - N/A   Overcast
11:15 AM 71.1 °F 59.2 °F 66% 30.09 in 10.0 mi South 8.1 mph - N/A   Overcast
11:35 AM 71.8 °F 59.9 °F 66% 30.09 in 10.0 mi South 8.1 mph - N/A   Overcast
11:55 AM 72.5 °F 60.1 °F 65% 30.08 in 10.0 mi SSE 6.9 mph - N/A   Overcast
12:15 PM 73.2 °F 59.2 °F 61% 30.08 in 10.0 mi SE 5.8 mph - N/A   Overcast
12:35 PM 74.5 °F 59.2 °F 59% 30.06 in 10.0 mi SE 9.2 mph - N/A   Mostly Cloudy
12:55 PM 75.4 °F 59.5 °F 58% 30.06 in 10.0 mi SSE 9.2 mph - N/A   Mostly Cloudy
1:15 PM 73.6 °F 59.9 °F 62% 30.05 in 10.0 mi SSE 8.1 mph - N/A   Mostly Cloudy
1:35 PM 73.8 °F 59.0 °F 60% 30.04 in 10.0 mi SSE 8.1 mph - N/A   Mostly Cloudy
1:55 PM 77.2 °F 59.4 °F 54% 30.03 in 10.0 mi SSE 9.2 mph - N/A   Mostly Cloudy
2:15 PM 74.7 °F 58.8 °F 58% 30.03 in 10.0 mi SSE 8.1 mph - N/A   Mostly Cloudy
2:35 PM 75.2 °F 56.8 °F 53% 30.02 in 10.0 mi SSE 9.2 mph - N/A   Overcast
2:55 PM 76.1 °F 58.3 °F 54% 30.02 in 10.0 mi SSE 10.4 mph - N/A   Overcast
3:15 PM 77.7 °F 57.9 °F 50% 30.00 in 10.0 mi SSE 9.2 mph - N/A   Mostly Cloudy
3:35 PM 75.9 °F 57.7 °F 53% 30.00 in 10.0 mi SSW 8.1 mph - N/A   Mostly Cloudy
3:55 PM 77.9 °F 58.6 °F 51% 29.99 in 10.0 mi SE 10.4 mph 17.3 mph N/A   Mostly Cloudy
4:15 PM 76.3 °F 58.5 °F 54% 29.99 in 10.0 mi South 12.7 mph 18.4 mph N/A   Mostly Cloudy
4:35 PM 74.5 °F 58.1 °F 57% 29.99 in 10.0 mi SSE 5.8 mph - N/A   Scattered Clouds
4:55 PM 76.5 °F 57.4 °F 52% 29.98 in 10.0 mi SSE 8.1 mph 17.3 mph N/A   Scattered Clouds
5:15 PM 76.3 °F 57.7 °F 53% 29.98 in 10.0 mi SSE 8.1 mph - N/A   Clear
5:35 PM 75.9 °F 57.9 °F 54% 29.98 in 10.0 mi SE 8.1 mph - N/A   Clear
5:55 PM 76.1 °F 57.9 °F 53% 29.98 in 10.0 mi SSE 5.8 mph - N/A   Scattered Clouds
6:15 PM 75.4 °F 57.4 °F 53% 29.98 in 10.0 mi SSE 9.2 mph - N/A   Clear
6:35 PM 74.3 °F 56.7 °F 54% 29.97 in 10.0 mi SE 9.2 mph - N/A   Clear
6:55 PM 73.0 °F 56.5 °F 56% 29.96 in 10.0 mi SSE 10.4 mph - N/A   Clear
7:15 PM 71.2 °F 56.7 °F 60% 29.97 in 10.0 mi SSE 10.4 mph - N/A   Clear
7:35 PM 70.0 °F 57.0 °F 63% 29.98 in 10.0 mi SSE 8.1 mph - N/A   Clear
7:55 PM 69.4 °F 57.4 °F 65% 29.98 in 10.0 mi SSE 8.1 mph - N/A   Clear
8:15 PM 68.9 °F 57.6 °F 67% 29.98 in 10.0 mi SSE 5.8 mph - N/A   Clear
8:35 PM 68.7 °F 58.1 °F 69% 29.98 in 10.0 mi SE 6.9 mph - N/A   Clear
8:55 PM 68.5 °F 58.5 °F 70% 29.98 in 10.0 mi SE 4.6 mph - N/A   Clear
9:15 PM 67.6 °F 58.6 °F 73% 29.99 in 10.0 mi Calm Calm - N/A   Clear
9:35 PM 67.1 °F 59.2 °F 76% 30.00 in 10.0 mi Calm Calm - N/A   Clear
9:55 PM 66.6 °F 59.5 °F 78% 30.00 in 10.0 mi Calm Calm - N/A   Clear
10:15 PM 65.8 °F 59.9 °F 81% 30.00 in 10.0 mi SE 3.5 mph - N/A   Clear
10:35 PM 65.7 °F 60.1 °F 82% 30.00 in 10.0 mi Calm Calm - N/A   Clear
10:55 PM 65.5 °F 60.6 °F 84% 30.00 in 10.0 mi ESE 3.5 mph - N/A   Clear
11:15 PM 65.3 °F 60.8 °F 85% 29.99 in 10.0 mi SE 3.5 mph - N/A   Clear
11:35 PM 65.3 °F 61.0 °F 86% 29.99 in 10.0 mi SE 4.6 mph - N/A   Clear
11:55 PM 65.3 °F 61.2 °F 86% 29.98 in 10.0 mi ESE 3.5 mph - N/A   Clear